Torna al catalogo

STARLINK-6058

AttivoComunicazioniVLEO
NORAD 56797·PAYLOAD·🇺🇸 United States

Lanciato May 31, 2023 da Vandenberg Space Force Base

Loading…

Prossimi Passaggi (prossime 24 ore)

TLE

AggiornatoSource: CelesTrak SupGP

Epoca: Sep 14, 2026, 14:34 UTC

1 56797C 23078AG  26257.60743056 -.00041230  00000+0 -34556-2 0  2570
2 56797  70.0012 228.2918 0003505 271.0383  98.7543 14.98346535    10

Traccia STARLINK-6058 in tempo reale con AllMySat

Download on the App Store